Location: Bellerive
(46.9237°N, 7.0223°E)
Time: 08:32:13
(UTC+00:00)

Aureole 1 Rocket - Pass Details

Date: 09 April 2020
Orbit: 379 x 1379 km, 73.9° (Epoch: 02 June)

Event Time Altitude Azimuth Distance (km) Brightness Sun altitude
Rises 18:35:28 0° 184° (S) 4,207 7.2 -4.6°
Reaches altitude 10° 18:38:32 10° 181° (S) 3,131 6.5 -5.1°
Maximum altitude 18:45:40 53° 107° (ESE) 1,227 4.2 -6.2°
Drops below altitude 10° 18:51:17 10° 32° (NNE) 2,477 6.0 -7.2°
Sets 18:53:28 0° 28° (NNE) 3,272 6.7 -7.5°
